[[{"header":{"parameterUnit":"m.s-1","parameterCategory":1,"la1":30.2991,"la2":30.254,"lo1":-89.0895,"lo2":-89.0444,"dy":0.0017,"dx":0.0017,"nx":28,"ny":28,"refTime":"2025-01-22T03:00:00:Z","depth":0,"parameterNumber":2,"parameterNumberName":"U-component_of_WINDS"},"data":[0,0,0,0,0,0,0,0,0,0,0,0,0,0,0,0,0,0,0,0,0,0,0,0,0,0,0,0,0,0,0,0,0,0,0,0,0,0,0,0,0,0,0,0,0,0,0,0,0,0,0,0,0,0,0,0,0,0,-0.7921,-0.792,0,-0.7884,-0.7883,-0.7883,-0.782,-0.7819,-0.7818,-0.7816,-0.7781,-0.7781,-0.7782,0,0,0,0,0,0,0,0,0,0,0,0,0,-0.7941,-0.7941,-0.7921,-0.792,-0.792,-0.7884,-0.7883,-0.7883,-0.782,-0.7819,-0.7817,-0.7816,-0.7781,-0.7781,-0.7782,0,0,0,0,0,0,0,0,0,0,0,0,0,-0.7921,-0.7941,-0.7921,-0.7884,-0.7881,-0.7884,-0.7883,-0.7883,-0.782,-0.7819,-0.7817,-0.7815,-0.7781,-0.7781,-0.7782,-0.7819,0,0,-0.7782,-0.7783,0,0,0,0,0,0,0,0,-0.7922,-0.792,-0.789,-0.7887,-0.7883,-0.7855,-0.7877,-0.7861,-0.7821,-0.7843,-0.7816,-0.7814,-0.7807,-0.7805,-0.7802,-0.7817,-0.7816,-0.7782,-0.7783,-0.7783,-0.7783,0,0,0,0,0,0,0,-0.7924,-0.7922,-0.7906,-0.789,-0.7885,-0.7871,-0.7866,-0.7874,-0.7836,-0.7841,-0.7837,-0.7833,-0.7805,-0.7802,-0.7801,-0.7815,-0.7782,-0.7783,-0.7783,-0.7783,-0.7861,-0.7862,0,0,0,0,0,0,-0.793,-0.7923,-0.7907,-0.7905,-0.7898,-0.7872,-0.7866,-0.7865,-0.7836,-0.7829,-0.7834,-0.783,-0.7803,-0.7801,-0.78,-0.7842,-0.7783,-0.7783,-0.7783,-0.7859,-0.7861,-0.7863,0,0,0,0,0,0,-0.7931,-0.7929,-0.7909,-0.7913,-0.7909,-0.7873,-0.7873,-0.7866,-0.7863,-0.783,-0.7824,-0.7839,-0.7801,-0.7799,-0.7815,-0.784,-0.7783,-0.7783,-0.7857,-0.7859,-0.7862,-0.7928,0,0,0,0,0,0,-0.7932,-0.793,-0.7943,-0.7914,-0.7909,-0.7924,-0.7874,-0.7866,-0.7863,-0.7857,-0.7832,-0.7827,-0.78,-0.7815,-0.7815,-0.784,-0.7783,-0.7854,-0.7858,-0.7861,-0.7923,-0.7932,-0.794,0,0,0,0,0,-0.7932,-0.7963,-0.7944,-0.7942,-0.7924,-0.7925,-0.7923,-0.789,-0.7865,-0.7879,-0.7858,-0.7827,-0.7837,-0.7817,-0.7817,-0.7842,-0.7852,-0.7857,-0.7861,-0.7919,-0.7931,-0.794,0,0,0,0,0,0,-0.7996,-0.7958,-0.7936,-0.7958,-0.7945,-0.7915,-0.793,-0.7903,-0.7898,-0.7893,-0.7854,-0.7849,-0.787,-0.7857,-0.7835,-0.7877,-0.784,-0.7845,-0.7885,-0.7895,-0.7904,-0.7907,-0.7784,0,0,0,0,0,-0.8012,-0.8015,-0.7982,-0.8005,-0.7999,-0.7966,-0.7965,-0.7942,-0.7927,-0.7922,-0.7902,-0.7891,-0.7891,-0.7892,-0.7891,-0.7921,-0.7916,-0.7938,-0.7947,-0.7954,-0.7959,-0.7976,-0.7986,-0.7877,-0.7877,-0.7877,0,0,-0.8047,-0.8026,-0.8031,-0.8017,-0.8004,-0.801,-0.7962,-0.7969,-0.7973,-0.7923,-0.7937,-0.7922,-0.7907,-0.793,-0.7939,-0.792,-0.7988,-0.796,-0.7966,-0.7966,-0.7981,-0.7991,-0.8001,-0.788,-0.788,-0.7879,0,0,-0.8112,-0.8096,-0.8113,-0.8102,-0.8083,-0.8061,-0.8066,-0.8039,-0.8028,-0.804,-0.8004,-0.8008,-0.801,-0.8001,-0.7996,-0.806,-0.8032,-0.8061,-0.8106,-0.8123,-0.8132,-0.8139,-0.8163,-0.8172,-0.8065,-0.8065,-0.8065,0,-0.8157,-0.8162,-0.8126,-0.8136,-0.8132,-0.8086,-0.8105,-0.8096,-0.8078,-0.8077,-0.8056,-0.8057,-0.8044,-0.8065,-0.8081,-0.8078,-0.8084,-0.8063,-0.8133,-0.814,-0.8147,-0.8169,-0.8179,-0.8069,-0.8068,-0.8068,-0.8068,0,-0.8219,-0.8224,-0.824,-0.8224,-0.8222,-0.8236,-0.8204,-0.8206,-0.8183,-0.8164,-0.8179,-0.8161,-0.8156,-0.8159,-0.8136,-0.8178,-0.8167,-0.814,-0.8102,-0.8161,-0.8182,-0.819,-0.8074,-0.8073,-0.8072,-0.8071,0,0,-0.8323,-0.8287,-0.8294,-0.8287,-0.8264,-0.8267,-0.8281,-0.8275,-0.8279,-0.8268,-0.828,-0.8282,-0.8258,-0.8253,-0.8229,-0.8244,-0.8298,-0.8215,-0.8214,-0.8232,-0.8345,-0.8366,-0.8377,-0.8279,-0.8281,-0.8282,-0.8347,0,-0.8384,-0.8403,-0.8372,-0.8399,-0.8404,-0.8362,-0.8373,-0.8361,-0.8344,-0.8347,-0.8328,-0.8331,-0.8298,-0.8295,-0.8307,-0.8289,-0.832,-0.8283,-0.8291,-0.8291,-0.8297,-0.8387,-0.8409,-0.8471,-0.8354,-0.8356,-0.8357,0,-0.8457,-0.8451,-0.8479,-0.8455,-0.8456,-0.8467,-0.846,-0.8463,-0.8449,-0.8436,-0.8432,-0.8403,-0.8416,-0.838,-0.8398,-0.8374,-0.8375,-0.8367,-0.8368,-0.8369,-0.8328,-0.8391,-0.849,-0.85,-0.8369,-0.8368,-0.8367,0,-0.8532,-0.853,-0.8547,-0.8542,-0.8515,-0.8524,-0.8513,-0.8497,-0.8497,-0.8492,-0.8491,-0.8488,-0.8486,-0.8485,-0.8458,-0.8433,-0.848,-0.8441,-0.8471,-0.8472,-0.8483,-0.8483,-0.8585,-0.8483,-0.8483,-0.8482,-0.8482,0,-0.8604,-0.8623,-0.858,-0.859,-0.8611,-0.8576,-0.8598,-0.8583,-0.857,-0.8578,-0.8541,-0.855,-0.8512,-0.8518,-0.8496,-0.8516,-0.8515,-0.8506,-0.85,-0.851,-0.8511,-0.8511,-0.8506,-0.8485,-0.8484,-0.8484,-0.8483,0,-0.8691,-0.8662,-0.8678,-0.8652,-0.8645,-0.8662,-0.864,-0.8649,-0.863,-0.8641,-0.8642,-0.8612,-0.8616,-0.8589,-0.8588,-0.8574,-0.8605,-0.8591,-0.8609,-0.8605,-0.8638,-0.8636,-0.8744,-0.8757,-0.8645,-0.8646,-0.8647,0,-0.8739,-0.8753,-0.8728,-0.873,-0.8721,-0.8726,-0.8725,-0.8691,-0.8692,-0.8679,-0.8691,-0.8692,-0.8691,-0.87,-0.868,-0.8679,-0.8666,-0.8704,-0.8666,-0.8676,-0.8669,-0.8669,-0.8671,-0.8713,-0.8714,-0.8715,-0.8716,0,-0.8828,-0.8814,-0.8814,-0.8809,-0.8809,-0.8804,-0.8797,-0.8802,-0.8765,-0.8769,-0.8772,-0.8772,-0.8772,-0.8774,-0.877,-0.8761,-0.8734,-0.8728,-0.8736,-0.8746,-0.8757,-0.8753,-0.8632,-0.8726,-0.8725,-0.8724,-0.8724,-0.8723,-0.8898,-0.8909,-0.8893,-0.8895,-0.8886,-0.8881,-0.8889,-0.8871,-0.8873,-0.8869,-0.885,-0.8858,-0.8846,-0.8838,-0.8831,-0.8838,-0.882,-0.883,-0.8833,-0.8836,-0.8843,-0.8755,-0.8837,-0.8837,-0.8836,-0.8836,-0.8836,0,-0.8986,-0.8975,-0.8976,-0.8968,-0.897,-0.8942,-0.8934,-0.8938,-0.8945,-0.8935,-0.8935,-0.8941,-0.8944,-0.8924,-0.8924,-0.8934,-0.8921,-0.8935,-0.8935,-0.8933,-0.8858,-0.8852,-0.8945,-0.8945,-0.8945,-0.8945,-0.8945,-0.8945,-0.9033,-0.905,-0.9034,-0.9048,-0.9036,-0.9043,-0.9041,-0.9036,-0.9029,-0.9036,-0.9038,-0.9025,-0.9012,-0.9011,-0.9013,-0.9008,-0.901,-0.9029,-0.9019,-0.8949,-0.8938,-0.8928,-0.8923,-0.9029,-0.9029,-0.9094,-0.9094,-0.9095]},{"header":{"parameterUnit":"m.s-1","parameterCategory":1,"la1":30.2991,"la2":30.254,"lo1":-89.0895,"lo2":-89.0444,"dy":0.0017,"dx":0.0017,"nx":28,"ny":28,"refTime":"2025-01-22T03:00:00:Z","depth":0,"parameterNumber":3,"parameterNumberName":"V-component_of_WINDS"},"data":[0,0,0,0,0,0,0,0,0,0,0,0,0,0,0,0,0,0,0,0,0,0,0,0,0,0,0,0,0,0,0,0,0,0,0,0,0,0,0,0,0,0,0,0,0,0,0,0,0,0,0,0,0,0,0,0,0,0,0.5029,0.5029,0,0.4966,0.4966,0.4965,0.498,0.4982,0.4983,0.4984,0.4917,0.4914,0.4911,0,0,0,0,0,0,0,0,0,0,0,0,0,0.5162,0.516,0.503,0.5029,0.5028,0.4966,0.4965,0.4965,0.498,0.4982,0.4983,0.4985,0.4918,0.4914,0.4911,0,0,0,0,0,0,0,0,0,0,0,0,0,0.5102,0.5159,0.503,0.5028,0.5028,0.4967,0.4965,0.4964,0.498,0.4982,0.4984,0.4985,0.4919,0.4914,0.491,0.4846,0,0,0.4897,0.4895,0,0,0,0,0,0,0,0,0.5106,0.5097,0.5029,0.5028,0.5027,0.4983,0.4988,0.4924,0.4979,0.4998,0.4984,0.4986,0.4937,0.4931,0.4915,0.4842,0.484,0.4896,0.4893,0.4892,0.489,0,0,0,0,0,0,0,0.511,0.51,0.5004,0.5028,0.5027,0.503,0.5024,0.4976,0.4958,0.4996,0.4997,0.499,0.4937,0.4919,0.4914,0.4839,0.4896,0.4892,0.489,0.4888,0.4709,0.4707,0,0,0,0,0,0,0.5115,0.5103,0.5006,0.5003,0.5072,0.5026,0.5019,0.4995,0.4958,0.4955,0.4988,0.4991,0.4926,0.4919,0.4911,0.4833,0.4892,0.4887,0.4885,0.4711,0.4709,0.4707,0,0,0,0,0,0,0.5118,0.5106,0.5009,0.5053,0.5041,0.5022,0.4995,0.4993,0.4976,0.4952,0.4949,0.4974,0.4927,0.4918,0.4862,0.4831,0.4885,0.4881,0.4714,0.4711,0.4708,0.4676,0,0,0,0,0,0,0.5121,0.5107,0.5083,0.5053,0.5039,0.4961,0.4993,0.4991,0.4968,0.4971,0.4938,0.4934,0.4928,0.4868,0.4858,0.4826,0.4878,0.4717,0.4712,0.4709,0.4679,0.4672,0.4665,0,0,0,0,0,0.5126,0.5076,0.5081,0.507,0.5008,0.4959,0.4951,0.4946,0.4966,0.4941,0.4926,0.4935,0.4837,0.4863,0.485,0.4817,0.4718,0.4714,0.4709,0.4682,0.4673,0.4665,0,0,0,0,0,0,0.5101,0.5072,0.5078,0.5016,0.499,0.4962,0.493,0.4936,0.4903,0.4907,0.4902,0.4894,0.4837,0.4822,0.4851,0.4752,0.478,0.4773,0.4764,0.4755,0.4748,0.4752,0.4874,0,0,0,0,0,0.5089,0.5053,0.5028,0.4976,0.4963,0.4949,0.4927,0.4926,0.4898,0.4887,0.4868,0.484,0.4803,0.4779,0.4743,0.4678,0.467,0.4649,0.4642,0.4636,0.4629,0.4593,0.4583,0.4691,0.4691,0.4691,0,0,0.5062,0.5042,0.5019,0.4971,0.495,0.4912,0.4939,0.4898,0.4869,0.4881,0.4827,0.4812,0.4781,0.472,0.4692,0.4705,0.4598,0.463,0.4626,0.4622,0.4587,0.4577,0.4568,0.4688,0.4689,0.4689,0,0,0.4994,0.4975,0.493,0.4909,0.4879,0.487,0.4859,0.483,0.4821,0.4767,0.4775,0.4741,0.4677,0.4654,0.4634,0.4559,0.4565,0.4547,0.451,0.4475,0.4466,0.4458,0.443,0.4421,0.4541,0.4541,0.4541,0,0.4965,0.4908,0.4905,0.4863,0.4841,0.4851,0.4805,0.4785,0.4744,0.4728,0.4744,0.4664,0.4644,0.4578,0.456,0.4544,0.453,0.455,0.4468,0.446,0.4453,0.4426,0.4416,0.4539,0.4539,0.4539,0.4539,0,0.4873,0.4833,0.48,0.4761,0.4736,0.4691,0.4681,0.4656,0.4657,0.4647,0.4592,0.4568,0.4528,0.4512,0.4513,0.4446,0.4455,0.4469,0.4497,0.444,0.4415,0.4405,0.4536,0.4536,0.4537,0.4538,0,0,0.4785,0.4746,0.4734,0.4716,0.4684,0.4653,0.4609,0.4571,0.4549,0.4521,0.4483,0.443,0.4443,0.442,0.4418,0.4388,0.4328,0.4406,0.4405,0.4391,0.4252,0.4241,0.4229,0.4334,0.4332,0.433,0.4255,0,0.4713,0.4636,0.4633,0.4563,0.4526,0.4536,0.4498,0.4473,0.4463,0.4429,0.4417,0.4379,0.44,0.4386,0.4357,0.4342,0.43,0.4347,0.4297,0.4295,0.4303,0.4216,0.4203,0.4133,0.4245,0.4243,0.4242,0,0.4618,0.4588,0.4514,0.4487,0.4472,0.4437,0.4402,0.437,0.4343,0.4337,0.4313,0.4315,0.427,0.4301,0.4237,0.427,0.4249,0.4239,0.4236,0.423,0.4264,0.4205,0.411,0.4099,0.4226,0.4228,0.4229,0,0.456,0.4501,0.4449,0.4434,0.4402,0.4377,0.4362,0.4337,0.4314,0.4284,0.4269,0.4233,0.4212,0.4184,0.4177,0.42,0.4113,0.4144,0.4106,0.4106,0.4086,0.4087,0.3984,0.4075,0.4076,0.4076,0.4076,0,0.4479,0.4433,0.4423,0.4391,0.434,0.4337,0.4286,0.4273,0.425,0.4215,0.4222,0.4189,0.4182,0.4148,0.4142,0.409,0.4081,0.4074,0.4073,0.4073,0.4073,0.4058,0.4062,0.4073,0.4074,0.4074,0.4075,0,0.4405,0.4396,0.434,0.4315,0.4307,0.427,0.4248,0.4217,0.4208,0.4164,0.4153,0.4138,0.4098,0.4088,0.404,0.4036,0.3974,0.3978,0.3983,0.3983,0.3946,0.3949,0.3828,0.3812,0.3915,0.3914,0.3913,0,0.4353,0.4318,0.4289,0.4266,0.4251,0.4214,0.4191,0.4188,0.4163,0.413,0.4103,0.4063,0.4032,0.3967,0.3951,0.3914,0.3916,0.3877,0.3911,0.3911,0.3914,0.3915,0.3911,0.3869,0.3868,0.3868,0.3867,0,0.4261,0.4258,0.4225,0.4191,0.4164,0.4136,0.411,0.4091,0.4083,0.4056,0.4015,0.3991,0.3942,0.3902,0.3866,0.385,0.3856,0.3857,0.3846,0.3844,0.3848,0.3844,0.3964,0.3859,0.386,0.386,0.3861,0.3861,0.4195,0.4164,0.4139,0.4102,0.4082,0.4058,0.4027,0.4015,0.3981,0.3941,0.3942,0.3897,0.3871,0.3822,0.3804,0.3769,0.3781,0.3765,0.3761,0.3757,0.3753,0.3855,0.3762,0.3762,0.3763,0.3763,0.3763,0,0.4102,0.4087,0.4053,0.4016,0.3987,0.3998,0.397,0.3944,0.3905,0.3881,0.385,0.3803,0.3765,0.3747,0.3709,0.3684,0.3686,0.3674,0.3675,0.3671,0.3745,0.3757,0.3673,0.3673,0.3673,0.3673,0.3673,0.3673,0.405,0.3998,0.3993,0.3932,0.3917,0.3874,0.3857,0.3834,0.3814,0.3762,0.3731,0.372,0.3697,0.3658,0.3624,0.362,0.3605,0.3591,0.3588,0.3657,0.3666,0.3674,0.3686,0.3588,0.3588,0.3516,0.3516,0.3515]}]]